[[{"header":{"parameterUnit":"m.s-1","parameterCategory":1,"la1":30.2991,"la2":30.254,"lo1":-89.0895,"lo2":-89.0444,"dy":0.0017,"dx":0.0017,"nx":28,"ny":28,"refTime":"2025-03-22T21:00:00:Z","depth":0,"parameterNumber":2,"parameterNumberName":"U-component_of_WINDS"},"data":[0,0,0,0,0,0,0,0,0,0,0,0,0,0,0,0,0,0,0,0,0,0,0,0,0,0,0,0,0,0,0,0,0,0,0,0,0,0,0,0,0,0,0,0,0,0,0,0,0,0,0,0,0,0,0,0,0,0,0.326,0.3261,0,0.3323,0.3323,0.3324,0.3339,0.3339,0.3339,0.3338,0.3403,0.3405,0.3407,0,0,0,0,0,0,0,0,0,0,0,0,0,0.3152,0.3154,0.326,0.3261,0.3261,0.3323,0.3323,0.3324,0.334,0.3339,0.3339,0.3338,0.3402,0.3404,0.3407,0,0,0,0,0,0,0,0,0,0,0,0,0,0.3205,0.3155,0.326,0.3276,0.3279,0.3322,0.3323,0.3324,0.334,0.3339,0.3338,0.3338,0.3401,0.3404,0.3407,0.3439,0,0,0.3417,0.3418,0,0,0,0,0,0,0,0,0.3202,0.3209,0.3273,0.3275,0.3278,0.3323,0.3309,0.3363,0.334,0.3316,0.3338,0.3338,0.3377,0.3382,0.3395,0.3442,0.3445,0.3417,0.3419,0.342,0.3421,0,0,0,0,0,0,0,0.3199,0.3207,0.3285,0.3274,0.3277,0.328,0.3287,0.3319,0.3349,0.3318,0.332,0.3327,0.3378,0.3392,0.3396,0.3446,0.3417,0.342,0.3422,0.3423,0.3521,0.3522,0,0,0,0,0,0,0.3192,0.3204,0.3283,0.3287,0.3238,0.3283,0.3291,0.3309,0.3349,0.3354,0.3327,0.3327,0.3387,0.3393,0.3399,0.3438,0.342,0.3423,0.3425,0.352,0.3521,0.3522,0,0,0,0,0,0,0.319,0.3199,0.328,0.3245,0.3256,0.3285,0.3306,0.331,0.3324,0.3356,0.3361,0.3336,0.3386,0.3394,0.3429,0.344,0.3425,0.3428,0.3519,0.3521,0.3522,0.3516,0,0,0,0,0,0,0.3187,0.3198,0.3211,0.3246,0.3258,0.3309,0.3307,0.3312,0.333,0.333,0.3365,0.3371,0.3387,0.3424,0.3432,0.3444,0.343,0.3519,0.352,0.3521,0.3516,0.3517,0.3518,0,0,0,0,0,0.3183,0.3207,0.3211,0.3221,0.3274,0.331,0.3317,0.3335,0.3331,0.3343,0.3363,0.3369,0.3438,0.3427,0.3436,0.345,0.3518,0.352,0.3521,0.3515,0.3517,0.3518,0,0,0,0,0,0,0.3173,0.3212,0.3217,0.3253,0.3278,0.3312,0.3329,0.3336,0.3362,0.3362,0.3383,0.3391,0.3423,0.344,0.3428,0.3482,0.3478,0.3481,0.347,0.3472,0.3473,0.3468,0.3433,0,0,0,0,0,0.3175,0.3201,0.3233,0.3262,0.3274,0.3299,0.3316,0.3327,0.3354,0.3364,0.3387,0.3412,0.3439,0.3457,0.3483,0.3518,0.3526,0.3532,0.3533,0.3534,0.3537,0.3556,0.3559,0.3527,0.3527,0.3527,0,0,0.3179,0.3204,0.3219,0.3261,0.3281,0.3307,0.3308,0.3336,0.3355,0.3368,0.3402,0.3419,0.3449,0.3483,0.35,0.3498,0.3547,0.3536,0.3537,0.3539,0.3558,0.3561,0.3563,0.3528,0.3528,0.3528,0,0,0.32,0.3222,0.3248,0.3268,0.3299,0.3316,0.3322,0.3355,0.3367,0.3401,0.3411,0.3434,0.3481,0.3501,0.3518,0.3545,0.3552,0.3554,0.3561,0.3579,0.3581,0.3584,0.3593,0.3596,0.3556,0.3556,0.3556,0,0.3202,0.3242,0.326,0.3287,0.3305,0.3318,0.3344,0.3363,0.3401,0.3413,0.3411,0.3469,0.349,0.3529,0.3535,0.3548,0.3556,0.355,0.358,0.3582,0.3584,0.3593,0.3597,0.3556,0.3556,0.3556,0.3556,0,0.3241,0.3269,0.3286,0.3322,0.3342,0.3368,0.339,0.3408,0.3418,0.3434,0.3468,0.3494,0.3525,0.3535,0.3545,0.3576,0.3574,0.3575,0.3571,0.3587,0.3596,0.36,0.3556,0.3556,0.3556,0.3556,0,0,0.3258,0.3304,0.331,0.3326,0.3361,0.3382,0.3409,0.344,0.3454,0.348,0.3502,0.3541,0.3542,0.3561,0.3573,0.3589,0.3608,0.3589,0.359,0.3591,0.3643,0.3641,0.3645,0.3613,0.3614,0.3614,0.364,0,0.3283,0.3331,0.3348,0.3388,0.3413,0.3425,0.3448,0.3472,0.3488,0.3511,0.3529,0.3556,0.3556,0.3567,0.3583,0.3603,0.3619,0.3601,0.3634,0.3635,0.3625,0.3649,0.3648,0.3671,0.3644,0.3644,0.3645,0,0.3319,0.3344,0.3386,0.3417,0.3428,0.3449,0.3478,0.35,0.3527,0.3538,0.3558,0.3569,0.3597,0.3591,0.3629,0.3617,0.3631,0.3643,0.3644,0.3647,0.364,0.3653,0.3678,0.3681,0.365,0.365,0.365,0,0.3326,0.3371,0.3402,0.3415,0.3452,0.3466,0.3482,0.3509,0.3526,0.3551,0.3563,0.3591,0.3606,0.3628,0.3646,0.364,0.3683,0.3679,0.3692,0.3691,0.37,0.3699,0.3727,0.371,0.371,0.371,0.371,0,0.3351,0.3376,0.3405,0.3424,0.3452,0.3471,0.3499,0.3515,0.3539,0.3561,0.3573,0.3593,0.3616,0.364,0.3654,0.3683,0.369,0.3699,0.3703,0.3698,0.3696,0.3707,0.3706,0.3711,0.371,0.371,0.371,0,0.3364,0.3384,0.3419,0.3451,0.3459,0.3479,0.3506,0.3524,0.3541,0.3568,0.3576,0.3602,0.3629,0.365,0.3686,0.3695,0.3726,0.373,0.3717,0.3719,0.373,0.3729,0.3766,0.3772,0.3751,0.3751,0.3751,0,0.3379,0.3398,0.3432,0.3448,0.3464,0.3489,0.3506,0.3526,0.3544,0.3575,0.359,0.3618,0.3642,0.3686,0.3708,0.3735,0.3739,0.3751,0.3744,0.3738,0.3739,0.3737,0.3739,0.3752,0.3752,0.3752,0.3752,0,0.3403,0.3412,0.3436,0.3464,0.3485,0.3508,0.3531,0.3543,0.3567,0.3586,0.3614,0.3633,0.3669,0.3698,0.3727,0.3743,0.3751,0.3754,0.3758,0.3753,0.3745,0.3749,0.3719,0.3753,0.3753,0.3753,0.3753,0.3753,0.3416,0.3434,0.346,0.3487,0.3507,0.3528,0.3547,0.3565,0.3589,0.3621,0.3631,0.366,0.3686,0.3726,0.3743,0.3766,0.3765,0.3772,0.3773,0.3775,0.3774,0.3741,0.3771,0.3771,0.3771,0.3771,0.3771,0,0.344,0.3458,0.3482,0.3514,0.3535,0.3541,0.3567,0.3584,0.361,0.3633,0.3656,0.3689,0.3716,0.3739,0.3767,0.3781,0.3785,0.3788,0.3787,0.379,0.3773,0.3766,0.3784,0.3784,0.3784,0.3784,0.3784,0.3784,0.3455,0.3485,0.3497,0.3536,0.3554,0.3582,0.3597,0.3616,0.3635,0.367,0.3693,0.3708,0.3731,0.3761,0.3786,0.3792,0.3802,0.3803,0.381,0.3793,0.3792,0.379,0.3784,0.3805,0.3805,0.3825,0.3825,0.3826]},{"header":{"parameterUnit":"m.s-1","parameterCategory":1,"la1":30.2991,"la2":30.254,"lo1":-89.0895,"lo2":-89.0444,"dy":0.0017,"dx":0.0017,"nx":28,"ny":28,"refTime":"2025-03-22T21:00:00:Z","depth":0,"parameterNumber":3,"parameterNumberName":"V-component_of_WINDS"},"data":[0,0,0,0,0,0,0,0,0,0,0,0,0,0,0,0,0,0,0,0,0,0,0,0,0,0,0,0,0,0,0,0,0,0,0,0,0,0,0,0,0,0,0,0,0,0,0,0,0,0,0,0,0,0,0,0,0,0,4.3987,4.3988,0,4.4076,4.4077,4.4078,4.404,4.4038,4.4036,4.4034,4.412,4.4124,4.4128,0,0,0,0,0,0,0,0,0,0,0,0,0,4.3782,4.3786,4.3987,4.3988,4.399,4.4075,4.4077,4.4078,4.4041,4.4038,4.4036,4.4033,4.4119,4.4124,4.4129,0,0,0,0,0,0,0,0,0,0,0,0,0,4.3871,4.3787,4.3987,4.3981,4.3982,4.4075,4.4077,4.4078,4.4041,4.4038,4.4035,4.4032,4.4117,4.4123,4.4129,4.4232,0,0,4.4149,4.4152,0,0,0,0,0,0,0,0,4.3866,4.3878,4.3981,4.3982,4.3983,4.4044,4.4036,4.413,4.4042,4.4019,4.4034,4.403,4.4097,4.4105,4.4128,4.4236,4.424,4.415,4.4153,4.4156,4.4158,0,0,0,0,0,0,0,4.386,4.3874,4.4022,4.3983,4.3984,4.3973,4.3982,4.4053,4.4074,4.402,4.4018,4.4029,4.4097,4.4122,4.413,4.4241,4.4149,4.4155,4.4159,4.4161,4.4437,4.444,0,0,0,0,0,0,4.3854,4.387,4.4019,4.4025,4.3915,4.3979,4.3989,4.4027,4.4073,4.4078,4.4032,4.4027,4.4113,4.4122,4.4133,4.4256,4.4156,4.4162,4.4166,4.4434,4.4438,4.4441,0,0,0,0,0,0,4.385,4.3868,4.4016,4.3947,4.3965,4.3986,4.4029,4.4031,4.4056,4.4082,4.4085,4.4054,4.4111,4.4124,4.4208,4.4258,4.4165,4.4171,4.4429,4.4435,4.444,4.4502,0,0,0,0,0,0,4.3844,4.3867,4.3907,4.3948,4.3968,4.4091,4.4032,4.4035,4.4068,4.4062,4.4104,4.4108,4.4109,4.4199,4.4214,4.4265,4.4176,4.4425,4.4432,4.4438,4.4496,4.4509,4.452,0,0,0,0,0,4.3837,4.392,4.3909,4.3928,4.402,4.4094,4.4106,4.4107,4.4072,4.4112,4.4128,4.4106,4.425,4.4208,4.4225,4.4278,4.4422,4.443,4.4437,4.449,4.4506,4.452,0,0,0,0,0,0,4.3883,4.3926,4.3914,4.4013,4.4051,4.4088,4.4138,4.4124,4.4171,4.4164,4.4162,4.4172,4.4258,4.4277,4.4229,4.438,4.433,4.4342,4.4365,4.438,4.4392,4.4386,4.4181,0,0,0,0,0,4.3906,4.3964,4.3997,4.4081,4.4101,4.4117,4.4149,4.4147,4.4185,4.42,4.4222,4.4259,4.4312,4.4347,4.4398,4.4498,4.4506,4.4544,4.4556,4.4566,4.4576,4.4629,4.4646,4.4467,4.4467,4.4467,0,0,4.3951,4.3981,4.4018,4.4091,4.412,4.4179,4.413,4.4194,4.4238,4.4209,4.429,4.4308,4.4348,4.4441,4.4483,4.4459,4.4627,4.4576,4.4584,4.4588,4.4639,4.4656,4.4671,4.4473,4.4472,4.4471,0,0,4.4065,4.4094,4.4167,4.4197,4.4242,4.4251,4.4269,4.4309,4.432,4.4402,4.4381,4.4432,4.4524,4.4553,4.458,4.4705,4.4686,4.4721,4.4785,4.4837,4.4851,4.4864,4.4907,4.4923,4.4731,4.4731,4.4731,0,4.4115,4.4205,4.4206,4.4273,4.4305,4.4283,4.4357,4.4385,4.4443,4.4465,4.4438,4.4553,4.4578,4.4677,4.4708,4.4731,4.475,4.4716,4.4849,4.4862,4.4873,4.4915,4.4931,4.4735,4.4735,4.4734,4.4734,0,4.4265,4.4327,4.4381,4.4439,4.4477,4.4547,4.4557,4.4595,4.459,4.4602,4.4685,4.4715,4.4771,4.4794,4.4789,4.4892,4.4876,4.4849,4.4799,4.4894,4.4933,4.4949,4.4741,4.4739,4.4738,4.4737,0,0,4.441,4.4468,4.4488,4.4514,4.4561,4.4608,4.4676,4.4732,4.4765,4.4805,4.4861,4.494,4.4915,4.4946,4.4944,4.499,4.5085,4.4957,4.4958,4.4979,4.52,4.522,4.5238,4.5073,4.5076,4.5079,4.5196,0,4.4526,4.4647,4.465,4.476,4.4817,4.4797,4.4856,4.489,4.4903,4.4952,4.4966,4.5022,4.4985,4.5004,4.5049,4.5064,4.5129,4.5056,4.5124,4.5126,4.5114,4.5259,4.528,4.5389,4.5212,4.5214,4.5216,0,4.4678,4.4725,4.4842,4.488,4.4904,4.4957,4.5009,4.5056,4.5094,4.5101,4.5135,4.5126,4.5193,4.5142,4.5235,4.5184,4.5212,4.5224,4.5228,4.5234,4.5177,4.5268,4.5424,4.544,4.524,4.5238,4.5237,0,4.4772,4.4864,4.4945,4.4968,4.5015,4.5053,4.5074,4.5109,4.5143,4.5187,4.5208,4.526,4.5287,4.5326,4.5331,4.5293,4.5423,4.5372,4.5429,4.5429,4.5457,4.5455,4.562,4.5476,4.5476,4.5476,4.5475,0,4.4901,4.4973,4.4988,4.5038,4.5117,4.5119,4.5196,4.5214,4.5246,4.5298,4.5283,4.5331,4.5334,4.5384,4.5387,4.5463,4.5475,4.5481,4.5481,4.5483,4.5482,4.55,4.5492,4.548,4.5479,4.5478,4.5477,0,4.5019,4.5032,4.5119,4.5157,4.5168,4.5225,4.5256,4.5303,4.5315,4.5381,4.5396,4.5414,4.5471,4.548,4.5547,4.5549,4.5639,4.5631,4.5627,4.5626,4.5681,4.5676,4.5863,4.5888,4.5729,4.573,4.5732,0,4.51,4.5155,4.5199,4.5234,4.5257,4.5313,4.5347,4.5351,4.5387,4.5434,4.5475,4.5531,4.5577,4.5669,4.5687,4.5738,4.573,4.5793,4.5738,4.5737,4.5731,4.5727,4.5732,4.5803,4.5805,4.5806,4.5807,0,4.5244,4.5247,4.5298,4.5351,4.5393,4.5434,4.5474,4.5502,4.551,4.5551,4.5611,4.5646,4.5715,4.577,4.5821,4.584,4.5825,4.5825,4.584,4.5842,4.5837,4.5839,4.5655,4.582,4.5819,4.5818,4.5817,4.5817,4.5345,4.5393,4.5431,4.5488,4.5518,4.5555,4.5601,4.5619,4.5669,4.5726,4.5725,4.579,4.5825,4.5892,4.5915,4.5965,4.5944,4.5967,4.5973,4.5978,4.5984,4.5829,4.5974,4.5974,4.5973,4.5973,4.5973,0,4.5487,4.5511,4.5563,4.5619,4.5664,4.5647,4.5689,4.5727,4.5785,4.582,4.5865,4.5933,4.5986,4.6009,4.6061,4.6096,4.6091,4.611,4.6107,4.6112,4.5999,4.598,4.6114,4.6114,4.6114,4.6114,4.6114,4.6114,4.5566,4.5646,4.5654,4.5747,4.577,4.5835,4.586,4.5894,4.5922,4.5999,4.6044,4.6059,4.6088,4.6143,4.6191,4.6196,4.6215,4.6238,4.6239,4.6134,4.612,4.6106,4.6088,4.6242,4.6242,4.6348,4.6349,4.6349]}]]